FW6620 Weather Reports


time (UTC)temp
C
wind
direction
speed
KPH
gust
KPH
rain 1hr
cm
rain 24hr
cm
rain mn
cm
humidity
%
barometer
mb
20260903190058 36 0 1.6 4.8 0.00 0.00 0.00 53 1012.6
20260903185546 36 46 1.6 4.8 0.00 0.00 0.00 53 1012.7
20260903185047 36 0 1.6 9.7 0.00 0.00 0.00 53 1012.9
20260903184559 36 45 0.0 9.7 0.00 0.00 0.00 54 1012.8
20260903184050 36 43 1.6 9.7 0.00 0.00 0.00 53 1013.0
20260903183547 36 65 0.0 9.7 0.00 0.00 0.00 54 1013.1
20260903183108 36 64 1.6 9.7 0.00 0.00 0.00 55 1013.1
20260903182550 36 66 0.0 9.7 0.00 0.00 0.00 55 1013.3
20260903182047 36 0 1.6 9.7 0.00 0.00 0.00 55 1013.3
20260903181601 36 58 1.6 9.7 0.00 0.00 0.00 54 1013.4
20260903181046 36 85 1.6 9.7 0.00 0.00 0.00 56 1013.4
20260903180549 35 56 0.0 9.7 0.00 0.00 0.00 56 1013.4
20260903180058 35 0 1.6 9.7 0.00 0.00 0.00 57 1013.5
20260903175546 35 59 1.6 9.7 0.00 0.00 0.00 57 1013.5
20260903175050 35 78 0.0 6.4 0.00 0.00 0.00 59 1013.6
20260903174558 34 78 1.6 11.3 0.00 0.00 0.00 58 1013.5
20260903174047 34 54 1.6 16.1 0.00 0.00 0.00 59 1013.7
20260903173547 34 63 3.2 16.1 0.00 0.00 0.00 60 1013.7
20260903173055 34 0 1.6 11.3 0.00 0.00 0.00 60 1013.6
20260903172549 33 0 1.6 11.3 0.00 0.00 0.00 61 1013.8
20260903172047 33 0 1.6 9.7 0.00 0.00 0.00 61 1013.8
20260903171612 33 57 0.0 9.7 0.00 0.00 0.00 62 1013.9
20260903171046 33 66 0.0 9.7 0.00 0.00 0.00 63 1014.0
20260903170547 33 52 1.6 9.7 0.00 0.00 0.00 64 1014.0
20260903170059 33 0 1.6 9.7 0.00 0.00 0.00 62 1014.0
20260903165547 33 81 1.6 11.3 0.00 0.00 0.00 63 1014.1
20260903165049 33 57 1.6 16.1 0.00 0.00 0.00 63 1014.0
20260903164557 33 61 1.6 16.1 0.00 0.00 0.00 63 1014.0
20260903164047 33 0 1.6 16.1 0.00 0.00 0.00 64 1014.1
20260903163548 33 60 1.6 12.9 0.00 0.00 0.00 64 1014.1
20260903163055 32 57 1.6 16.1 0.00 0.00 0.00 66 1014.3
20260903162547 32 57 3.2 16.1 0.00 0.00 0.00 67 1014.2
20260903162047 32 60 1.6 11.3 0.00 0.00 0.00 67 1014.1
20260903161600 32 59 1.6 9.7 0.00 0.00 0.00 67 1014.2
20260903161048 32 103 0.0 9.7 0.00 0.00 0.00 68 1014.3
20260903160547 32 64 1.6 11.3 0.00 0.00 0.00 69 1014.2
20260903160057 31 54 0.0 11.3 0.00 0.00 0.00 69 1014.2
20260903155546 31 0 3.2 11.3 0.00 0.00 0.00 69 1014.2
20260903155046 31 70 3.2 11.3 0.00 0.00 0.00 70 1014.1
20260903154557 31 0 1.6 11.3 0.00 0.00 0.00 70 1014.2
20260903154047 31 63 3.2 11.3 0.00 0.00 0.00 71 1014.3
20260903153546 31 64 0.0 9.7 0.00 0.00 0.00 71 1014.2
20260903153101 31 0 1.6 9.7 0.00 0.00 0.00 72 1014.3
20260903152546 30 87 0.0 6.4 0.00 0.00 0.00 73 1014.2
20260903152046 30 113 0.0 9.7 0.00 0.00 0.00 73 1014.3
20260903151609 30 68 0.0 9.7 0.00 0.00 0.00 74 1014.3
20260903151048 30 64 1.6 9.7 0.00 0.00 0.00 74 1014.3
20260903150548 30 67 0.0 9.7 0.00 0.00 0.00 74 1014.3
20260903150107 30 54 1.6 6.4 0.00 0.00 0.00 76 1014.3
20260903145546 30 0 1.6 6.4 0.00 0.00 0.00 75 1014.2
20260903145046 29 0 0.0 6.4 0.00 0.00 0.00 76 1014.2
20260903144558 29 120 0.0 11.3 0.00 0.00 0.00 77 1014.3
20260903144047 29 89 1.6 11.3 0.00 0.00 0.00 77 1014.2
20260903143546 29 71 1.6 11.3 0.00 0.00 0.00 78 1014.3
20260903143101 29 76 1.6 12.9 0.00 0.00 0.00 78 1014.2
20260903142546 28 72 3.2 12.9 0.00 0.00 0.00 79 1014.3
20260903142046 28 59 0.0 9.7 0.00 0.00 0.00 79 1014.2
20260903141604 28 57 1.6 9.7 0.00 0.00 0.00 80 1014.1
20260903141050 28 68 1.6 9.7 0.00 0.00 0.00 80 1014.2
20260903140547 28 64 1.6 9.7 0.00 0.00 0.00 80 1014.2
20260903140112 28 0 0.0 12.9 0.00 0.00 0.00 81 1014.3
20260903135546 28 0 1.6 12.9 0.00 0.00 0.00 82 1014.4
20260903135047 28 0 1.6 12.9 0.00 0.00 0.00 82 1014.4
20260903134603 28 0 1.6 9.7 0.00 0.00 0.00 82 1014.4
20260903134046 28 66 1.6 14.5 0.00 0.00 0.00 82 1014.3
20260903133547 27 0 1.6 14.5 0.00 0.00 0.00 83 1014.3
20260903133058 27 67 3.2 14.5 0.00 0.00 0.00 83 1014.2
20260903132548 27 0 0.0 6.4 0.00 0.00 0.00 84 1014.3
20260903132047 27 62 0.0 11.3 0.00 0.00 0.00 84 1014.4
20260903131610 27 0 0.0 11.3 0.00 0.00 0.00 84 1014.4
20260903131047 27 66 1.6 9.7 0.00 0.00 0.00 84 1014.4
20260903130546 27 0 0.0 9.7 0.00 0.00 0.00 85 1014.4
20260903125548 27 58 1.6 6.4 0.00 0.00 0.00 86 1014.4
20260903125046 27 0 0.0 4.8 0.00 0.00 0.00 86 1014.3
20260903124615 27 58 0.0 3.2 0.00 0.00 0.00 86 1014.3
20260903124046 27 58 0.0 3.2 0.00 0.00 0.00 86 1014.3
20260903123546 27 0 0.0 0.0 0.00 0.00 0.00 86 1014.2
20260903123100 27 0 0.0 4.8 0.00 0.00 0.00 86 1014.2
20260903122546 27 0 0.0 4.8 0.00 0.00 0.00 86 1014.1
20260903122046 27 58 0.0 4.8 0.00 0.00 0.00 87 1014.1
20260903121559 27 0 0.0 3.2 0.00 0.00 0.00 87 1014.0
20260903121046 27 0 0.0 1.6 0.00 0.00 0.00 87 1014.1
20260903120547 27 0 0.0 0.0 0.00 0.00 0.00 87 1014.0
20260903115546 27 0 0.0 6.4 0.00 0.00 0.00 87 1014.0
20260903115046 27 0 0.0 6.4 0.00 0.00 0.00 87 1013.9
20260903114602 27 58 0.0 4.8 0.00 0.00 0.00 87 1013.9
20260903114046 27 0 0.0 0.0 0.00 0.00 0.00 87 1013.9
20260903113548 27 0 0.0 1.6 0.00 0.00 0.00 87 1013.8
20260903113058 27 0 0.0 4.8 0.00 0.00 0.00 87 1013.8
20260903112548 27 0 0.0 4.8 0.00 0.00 0.00 87 1013.8
20260903112046 27 0 0.0 4.8 0.00 0.00 0.00 87 1013.7
20260903111601 27 0 0.0 9.7 0.00 0.00 0.00 87 1013.7
20260903111047 27 0 1.6 9.7 0.00 0.00 0.00 87 1013.7
20260903110547 27 0 0.0 6.4 0.00 0.00 0.00 87 1013.7
20260903110105 27 61 0.0 6.4 0.00 0.00 0.00 87 1013.7
20260903105550 27 62 0.0 6.4 0.00 0.00 0.00 87 1013.7
20260903105050 27 0 0.0 4.8 0.00 0.00 0.00 87 1013.7
20260903104603 27 0 0.0 11.3 0.00 0.00 0.00 87 1013.7
20260903104046 27 0 0.0 11.3 0.00 0.00 0.00 87 1013.6
20260903103546 27 56 3.2 9.7 0.00 0.00 0.00 87 1013.5
20260903103102 27 72 0.0 6.4 0.00 0.00 0.00 87 1013.5
20260903102545 27 0 1.6 11.3 0.00 0.00 0.00 87 1013.4
20260903102047 27 0 1.6 11.3 0.00 0.00 0.00 87 1013.5
20260903101603 27 70 0.0 9.7 0.00 0.00 0.00 87 1013.5
20260903101047 27 58 1.6 9.7 0.00 0.00 0.00 87 1013.5
20260903100547 27 64 0.0 9.7 0.00 0.00 0.00 87 1013.5
20260903100059 27 0 0.0 9.7 0.00 0.00 0.00 87 1013.5
20260903095546 27 64 0.0 4.8 0.00 0.00 0.00 87 1013.6
20260903095046 27 0 0.0 6.4 0.00 0.00 0.00 87 1013.6
20260903094642 27 64 0.0 6.4 0.00 0.00 0.00 87 1013.7
20260903094046 27 69 0.0 6.4 0.00 0.00 0.00 86 1013.7
20260903093546 27 62 0.0 4.8 0.00 0.00 0.00 86 1013.7
20260903093104 27 0 0.0 9.7 0.00 0.00 0.00 86 1013.7
20260903092550 27 0 1.6 9.7 0.00 0.00 0.00 86 1013.7
20260903092049 27 58 0.0 9.7 0.00 0.00 0.00 86 1013.7
20260903091605 27 53 1.6 9.7 0.00 0.00 0.00 86 1013.8
20260903091046 27 60 0.0 9.7 0.00 0.00 0.00 86 1013.8
20260903090547 27 62 0.0 9.7 0.00 0.00 0.00 86 1013.8
20260903090059 27 66 0.0 6.4 0.00 0.00 0.00 86 1013.9
20260903085546 27 68 1.6 6.4 0.00 0.00 0.00 85 1013.9
20260903085046 27 0 0.0 4.8 0.00 0.00 0.00 85 1013.8
20260903084558 27 0 0.0 6.4 0.00 0.00 0.00 85 1013.8
20260903084046 27 0 1.6 9.7 0.00 0.00 0.00 85 1013.7
20260903083546 27 68 1.6 9.7 0.00 0.00 0.00 85 1013.8
20260903083108 27 0 0.0 6.4 0.00 0.00 0.00 85 1013.9
20260903082546 27 64 1.6 9.7 0.00 0.00 0.00 85 1013.9
20260903082047 27 80 1.6 9.7 0.00 0.00 0.00 84 1013.8
20260903081603 27 65 0.0 12.9 0.00 0.00 0.00 84 1013.8
20260903081047 27 0 1.6 12.9 0.00 0.00 0.00 84 1013.8
20260903080547 27 0 1.6 11.3 0.00 0.00 0.00 84 1013.7
20260903080104 27 0 1.6 11.3 0.00 0.00 0.00 84 1013.8
20260903075546 27 0 3.2 12.9 0.00 0.00 0.00 83 1013.8
20260903075047 27 66 1.6 12.9 0.00 0.00 0.00 83 1013.8
20260903074604 27 56 1.6 12.9 0.00 0.00 0.00 83 1013.9
20260903074047 27 64 3.2 11.3 0.00 0.00 0.00 82 1014.0
20260903073546 27 0 1.6 9.7 0.00 0.00 0.00 82 1014.0
20260903073058 27 60 1.6 12.9 0.00 0.00 0.00 82 1014.0
20260903072546 27 71 1.6 14.5 0.00 0.00 0.00 81 1014.0
20260903072046 28 53 3.2 14.5 0.00 0.00 0.00 81 1014.0
20260903071601 28 59 1.6 9.7 0.00 0.00 0.00 80 1014.0
20260903071046 28 78 0.0 11.3 0.00 0.00 0.00 80 1014.0
20260903070545 28 63 0.0 11.3 0.00 0.00 0.00 80 1014.1
20260903070100 28 0 1.6 9.7 0.00 0.00 0.00 79 1014.2
20260903065547 28 66 1.6 9.7 0.00 0.00 0.00 79 1014.1
20260903065046 28 70 1.6 9.7 0.00 0.00 0.00 78 1014.1
20260903064604 28 0 1.6 11.3 0.00 0.00 0.00 78 1014.1
20260903064047 28 74 0.0 11.3 0.00 0.00 0.00 77 1014.1
20260903063545 28 0 0.0 11.3 0.00 0.00 0.00 77 1014.1
20260903063054 28 64 0.0 11.3 0.00 0.00 0.00 77 1014.1
20260903062546 28 0 1.6 11.3 0.00 0.00 0.00 76 1014.2
20260903062046 28 60 0.0 11.3 0.00 0.00 0.00 76 1014.2
20260903061558 28 0 0.0 12.9 0.00 0.00 0.00 75 1014.2
20260903061046 28 66 1.6 12.9 0.00 0.00 0.00 74 1014.1
20260903060546 28 66 1.6 14.5 0.00 0.00 0.00 73 1014.2
20260903060058 28 60 1.6 14.5 0.00 0.00 0.00 73 1014.0
20260903055547 28 74 1.6 9.7 0.00 0.00 0.00 72 1014.1
20260903055047 29 0 1.6 12.9 0.00 0.00 0.00 72 1014.1
20260903054604 29 60 1.6 12.9 0.00 0.00 0.00 71 1014.1
20260903054048 29 56 3.2 12.9 0.00 0.00 0.00 70 1014.1
20260903053546 29 68 0.0 12.9 0.00 0.00 0.00 70 1014.0
20260903053104 29 0 1.6 20.9 0.00 0.00 0.00 69 1014.0
20260903052546 29 62 4.8 20.9 0.00 0.00 0.00 68 1014.0
20260903052047 30 157 1.6 11.3 0.00 0.00 0.00 67 1014.0
20260903051559 30 74 1.6 9.7 0.00 0.00 0.00 66 1014.0
20260903051047 30 0 1.6 14.5 0.00 0.00 0.00 66 1014.0
20260903050546 30 62 0.0 14.5 0.00 0.00 0.00 66 1013.9
20260903050101 30 58 0.0 11.3 0.00 0.00 0.00 66 1013.9
20260903045547 30 0 0.0 11.3 0.00 0.00 0.00 65 1014.0
20260903045049 30 53 0.0 9.7 0.00 0.00 0.00 65 1013.9
20260903044600 30 0 0.0 3.2 0.00 0.00 0.00 66 1014.1
20260903044046 30 74 0.0 6.4 0.00 0.00 0.00 67 1014.0
20260903043546 30 0 0.0 6.4 0.00 0.00 0.00 67 1013.9
20260903043100 30 0 0.0 6.4 0.00 0.00 0.00 68 1013.9
20260903042551 30 78 0.0 9.7 0.00 0.00 0.00 68 1013.8
20260903042046 30 0 0.0 9.7 0.00 0.00 0.00 68 1013.7
20260903041612 30 0 0.0 4.8 0.00 0.00 0.00 69 1013.7
20260903041045 30 0 0.0 4.8 0.00 0.00 0.00 68 1013.6
20260903040545 30 72 0.0 4.8 0.00 0.00 0.00 68 1013.7
20260903040120 30 0 0.0 4.8 0.00 0.00 0.00 67 1013.8
20260903035546 30 75 1.6 4.8 0.00 0.00 0.00 66 1013.8
20260903035046 31 0 0.0 4.8 0.00 0.00 0.00 66 1013.9
20260903034553 31 0 0.0 4.8 0.00 0.00 0.00 65 1013.9
20260903034046 31 0 0.0 4.8 0.00 0.00 0.00 64 1013.8
20260903033546 31 0 0.0 9.7 0.00 0.00 0.00 63 1013.8
20260903033058 31 0 1.6 9.7 0.00 0.00 0.00 62 1013.7
20260903032546 31 66 0.0 4.8 0.00 0.00 0.00 62 1013.6
20260903032049 31 157 0.0 6.4 0.00 0.00 0.00 62 1013.6
20260903031600 31 65 1.6 6.4 0.00 0.00 0.00 61 1013.6
20260903031050 31 75 0.0 3.2 0.00 0.00 0.00 61 1013.4
20260903030546 31 75 0.0 3.2 0.00 0.00 0.00 61 1013.3
20260903030057 31 0 0.0 3.2 0.00 0.00 0.00 61 1013.0
20260903025547 32 0 0.0 4.8 0.00 0.00 0.00 60 1013.0
20260903025050 32 0 0.0 4.8 0.00 0.00 0.00 60 1012.9
20260903024557 32 0 0.0 4.8 0.00 0.00 0.00 61 1012.9
20260903024045 32 0 0.0 4.8 0.00 0.00 0.00 60 1012.8
20260903023545 32 0 0.0 4.8 0.00 0.00 0.00 60 1012.7
20260903023102 32 0 0.0 4.8 0.00 0.00 0.00 60 1012.6
20260903022548 31 75 0.0 3.2 0.00 0.00 0.00 60 1012.5
20260903022045 31 0 0.0 3.2 0.00 0.00 0.00 60 1012.3
20260903021559 31 0 0.0 1.6 0.00 0.00 0.00 60 1012.3
20260903021046 31 0 0.0 0.0 0.00 0.00 0.00 62 1011.9
20260903020545 31 0 0.0 0.0 0.00 0.00 0.00 61 1011.8
20260903020058 32 0 0.0 0.0 0.00 0.00 0.00 61 1011.7
20260903015546 32 0 0.0 0.0 0.00 0.00 0.00 59 1011.6
20260903015045 32 0 0.0 0.0 0.00 0.00 0.00 59 1011.6
20260903014554 32 0 0.0 0.0 0.00 0.00 0.00 58 1011.6
20260903014049 32 0 0.0 0.0 0.00 0.00 0.00 58 1011.6
20260903013546 33 0 0.0 0.0 0.00 0.00 0.00 57 1011.5
20260903013059 33 0 0.0 0.0 0.00 0.00 0.00 56 1011.5
20260903012545 33 0 0.0 0.0 0.00 0.00 0.00 55 1011.5
20260903012045 33 0 0.0 3.2 0.00 0.00 0.00 55 1011.6
20260903011558 33 0 0.0 3.2 0.00 0.00 0.00 54 1011.5
20260903011046 33 75 0.0 1.6 0.00 0.00 0.00 54 1011.6
20260903010546 33 0 0.0 3.2 0.00 0.00 0.00 53 1011.5
20260903010056 33 0 0.0 3.2 0.00 0.00 0.00 53 1011.5
20260903005545 34 0 0.0 3.2 0.00 0.00 0.00 53 1011.6
20260903005046 34 0 0.0 3.2 0.00 0.00 0.00 52 1011.4
20260903004555 34 0 0.0 3.2 0.00 0.00 0.00 52 1011.5
20260903004046 34 76 0.0 3.2 0.00 0.00 0.00 51 1011.5
20260903003545 34 0 0.0 1.6 0.00 0.00 0.00 51 1011.5
20260903003101 35 0 0.0 1.6 0.00 0.00 0.00 50 1011.5
20260903002545 35 0 0.0 1.6 0.00 0.00 0.00 52 1011.5
20260903002046 35 0 0.0 1.6 0.00 0.00 0.00 51 1011.3
20260903001604 35 0 0.0 1.6 0.00 0.00 0.00 50 1011.4
20260903001045 35 0 0.0 0.0 0.00 0.00 0.00 51 1011.4
20260903000546 36 0 0.0 0.0 0.00 0.00 0.00 50 1011.4
20260903000059 36 0 0.0 0.0 0.00 0.00 0.00 50 1011.3
20260902235546 36 0 0.0 3.2 0.00 0.00 0.00 48 1011.3
20260902235046 36 0 0.0 3.2 0.00 0.00 0.00 48 1011.3
20260902234555 36 0 0.0 0.0 0.00 0.00 0.00 49 1011.3
20260902234046 36 0 0.0 3.2 0.00 0.00 0.00 47 1011.4
20260902233546 36 0 0.0 3.2 0.00 0.00 0.00 47 1011.4
20260902233058 36 0 0.0 3.2 0.00 0.00 0.00 46 1011.4
20260902232545 36 0 0.0 1.6 0.00 0.00 0.00 45 1011.4
20260902232045 36 0 0.0 1.6 0.00 0.00 0.00 46 1011.4
20260902231551 36 0 0.0 0.0 0.00 0.00 0.00 47 1011.4
20260902231046 36 0 0.0 3.2 0.00 0.00 0.00 46 1011.4
20260902230546 36 0 0.0 4.8 0.00 0.00 0.00 46 1011.4
20260902230117 36 0 0.0 4.8 0.00 0.00 0.00 46 1011.5
20260902225546 36 0 0.0 4.8 0.00 0.00 0.00 46 1011.2
20260902225045 36 0 0.0 4.8 0.00 0.00 0.00 45 1011.4
20260902224600 36 68 0.0 4.8 0.00 0.00 0.00 46 1011.3
20260902224045 36 0 0.0 3.2 0.00 0.00 0.00 47 1011.4
20260902223546 36 0 0.0 4.8 0.00 0.00 0.00 47 1011.4
20260902223054 36 0 0.0 4.8 0.00 0.00 0.00 49 1011.5
20260902222546 36 0 0.0 4.8 0.00 0.00 0.00 47 1011.4
20260902222048 36 0 0.0 6.4 0.00 0.00 0.00 48 1011.5
20260902221601 36 68 1.6 6.4 0.00 0.00 0.00 48 1011.4
20260902221045 36 0 0.0 6.4 0.00 0.00 0.00 48 1011.5
20260902220545 36 0 0.0 9.7 0.00 0.00 0.00 47 1011.6
20260902220100 36 0 0.0 12.9 0.00 0.00 0.00 47 1011.6
20260902215545 36 60 1.6 12.9 0.00 0.00 0.00 47 1011.5
20260902215045 36 72 0.0 6.4 0.00 0.00 0.00 47 1011.6
20260902214612 36 66 1.6 6.4 0.00 0.00 0.00 47 1011.7
20260902214045 36 66 1.6 6.4 0.00 0.00 0.00 46 1011.7
20260902213545 37 61 0.0 4.8 0.00 0.00 0.00 50 1011.7
20260902213100 37 0 0.0 4.8 0.00 0.00 0.00 47 1011.7
20260902212546 37 61 0.0 6.4 0.00 0.00 0.00 47 1011.8
20260902212046 37 0 0.0 6.4 0.00 0.00 0.00 47 1011.8
20260902211558 37 56 1.6 6.4 0.00 0.00 0.00 46 1012.0
20260902211045 36 0 0.0 4.8 0.00 0.00 0.00 47 1011.9
20260902210546 36 57 0.0 4.8 0.00 0.00 0.00 46 1011.9
20260902210135 36 57 0.0 6.4 0.00 0.00 0.00 48 1011.9
20260902205545 35 0 0.0 6.4 0.00 0.00 0.00 48 1012.0
20260902205045 35 0 0.0 4.8 0.00 0.00 0.00 49 1012.2
20260902204556 34 58 1.6 4.8 0.00 0.00 0.00 53 1012.2
20260902204046 33 0 0.0 4.8 0.00 0.00 0.00 58 1012.3
20260902203545 33 0 0.0 4.8 0.00 0.00 0.00 59 1012.4
20260902203053 32 0 0.0 3.2 0.00 0.00 0.00 69 1012.5
20260902202546 32 57 0.0 1.6 0.00 0.00 0.00 69 1012.7
20260902202049 32 0 0.0 3.2 0.00 0.00 0.00 71 1012.7
20260902201619 32 0 0.0 3.2 0.00 0.00 0.00 72 1012.8
20260902201045 33 57 0.0 3.2 0.00 0.00 0.00 67 1012.9
20260902200546 35 0 0.0 3.2 0.00 0.00 0.00 64 1013.0
20260902200106 36 57 0.0 3.2 0.00 0.00 0.00 56 1012.9
20260902195546 36 0 0.0 6.4 0.00 0.00 0.00 47 1013.0
20260902195045 36 57 1.6 6.4 0.00 0.00 0.00 47 1013.1
20260902194600 36 0 0.0 4.8 0.00 0.00 0.00 47 1013.1
20260902194050 36 53 0.0 3.2 0.00 0.00 0.00 47 1013.1
20260902193545 36 0 0.0 4.8 0.00 0.00 0.00 51 1013.1
20260902193101 36 0 0.0 4.8 0.00 0.00 0.00 48 1013.2
20260902192545 36 0 0.0 0.0 0.00 0.00 0.00 47 1013.4
20260902192046 36 0 0.0 0.0 0.00 0.00 0.00 48 1013.4
20260902191602 36 0 0.0 0.0 0.00 0.00 0.00 48 1013.5
20260902191045 36 0 0.0 0.0 0.00 0.00 0.00 49 1013.5
20260902190548 36 0 0.0 0.0 0.00 0.00 0.00 47 1013.7